"Pseudo-MPEC" for CEJJME2

Created 2026 Apr 16 23:35:10 UT using Find_Orb

Click here for an explanation of pseudo-MPECs

 
 Astrometry: 
     CEJJME2*1C2026 04 16.37361315 24 06.851+07 37 23.52   ~4G9Z 20.93GVNEOCPG96
     CEJJME2 1C2026 04 16.37881815 24 06.253+07 37 16.61   ~4G9Z 20.38GVNEOCPG96
     CEJJME2 1C2026 04 16.38400915 24 05.645+07 37 08.40   ~4G9Z 20.87GVNEOCPG96
     CEJJME2 1C2026 04 16.38921715 24 05.036+07 37 00.84   ~4G9Z 21.14GVNEOCPG96
     CEJJME2 KB2026 04 16.41838015 24 01.447+07 36 17.06   ~4GB5 20.7 GXNEOCP734
     CEJJME2 1C2026 04 16.42257515 24 01.076+07 36 12.38   ~4GAK 21.26GVNEOCPV06
     CEJJME2 1C2026 04 16.42325715 24 01.008+07 36 11.38   ~4GAK 21.05GVNEOCPV06
     CEJJME2 1C2026 04 16.42393715 24 00.929+07 36 10.44   ~4GAK 21.39GVNEOCPV06
     CEJJME2 1C2026 04 16.42461915 24 00.853+07 36 09.43   ~4GAK 21.32GVNEOCPV06
     CEJJME2  C2026 04 16.42848815 24 00.355+07 36 03.36   ~4GB5 21.1 GWNEOCPH01
     CEJJME2  C2026 04 16.43172915 23 59.974+07 35 58.66   ~4GB5 21.0 GWNEOCPH01
     CEJJME2 KB2026 04 16.43422515 23 59.592+07 35 53.27   ~4GB5 21.4 GXNEOCP734
     CEJJME2  C2026 04 16.44209015 23 58.758+07 35 43.58   ~4GB5 21.2 GWNEOCPH01
     CEJJME2  C2026 04 16.44898415 23 57.951+07 35 33.46   ~4GB5 21.1 GWNEOCPH01

Station data:
(734) Farpoint Observatory, Eskridge  (N38.890239 W96.002420)  US/Kansas.
   Observer G. Hug. 0.69-m reflector + CCD.
(G96) Mt. Lemmon Survey  (N32.442729 W110.788720)  US/Arizona.  Observer E.
   J. Christensen. Measurers T. Beuden, V. F. Carvajal, D. Fay, J. B.
   Fazekas, D. C. Fuls, A. R. Gibbs, A. D. Grauer, H. Gröller, J. K. Hogan,
   R. A. Kowalski, S. M. Larson, G. J. Leonard, D. Rankin, R. L. Seaman, F.
   C. Shelly, K. W. Wierzchoś. 1.5-m reflector + 10K CCD.
(H01) Magdalena Ridge Observatory, Socorro  (N33.984833 W107.189333)  US/New
   Mexico.  Observers W. H. Ryan, E. V. Ryan. Measurer W. H. Ryan. 2.4-m
   f/8.9 reflector + CCD.
(V06) Catalina Sky Survey-Kuiper  (N32.416871 W110.732550)  US/Arizona.
   Measurers T. Beuden, V. F. Carvajal, D. Fay, J. B. Fazekas, D. C. Fuls, A.
   R. Gibbs, A. D. Grauer, H. Gröller, J. K. Hogan, R. A. Kowalski, S. M.
   Larson, G. J. Leonard, D. Rankin, R. L. Seaman, F. C. Shelly, K. W.
   Wierzchoś. 1.55-m reflector + CCD.

Orbital elements:  CEJJME2
   Perihelion 2026 Jun 7.820336 +/- 75 TT = 19:41:17.0 (JD 2461199.320336)
Epoch 2026 Apr 16.0 TT = JDT 2461146.5   Earth MOID: 0.5949   Ma: 0.0514
M 343.453231020 +/- 23              (J2000 ecliptic)             AutoNEOCP
n   0.313265120 +/- 0.196           Peri.  190.155572 +/- 59
a   2.147144901 +/- 0.896           Node    48.495429 +/- 5.7
e   0.25427335 +/- 0.245            Incl.   36.426108 +/- 11
P   3.14624                H 20.07  G  0.15   U 11.7  SR
q 1.601183156 +/- 0.304    Q 2.693106646 +/- 7.74
From 14 observations 2026 Apr. 16 (1.8 hr); mean residual 0".18
Residuals in arcseconds: 
260416 G96  .19-  .20-    260416 V06  .24-  .07+    260416 H01  .03-  .06+    
260416 G96  .04+  .47+    260416 V06  .05-  .07+    260416 734  .10+  .63-    
260416 G96  .09+  .17-    260416 V06  .04-  .12+    260416 H01  .01+  .14+    
260416 G96  .17+  .14-    260416 V06  .03+  .11+    260416 H01  .06+  .11+    
260416 734  .09+  .03-    260416 H01  .04-  .02+    

Ephemerides (geocentric):
Date (UTC) HH   RA             Dec           delta  r     elong  mag " sig PA
---- --------  ------------   ------------  ------ ------ -----  --- --------
2026 04 17 00  15 22 55.066   +07 22 06.93  .69693 1.6395 148.7 21.3 17.5 104
2026 04 17 01  15 22 50.237   +07 21 04.90  .69665 1.6395 148.7 21.3 18.7 104
2026 04 17 02  15 22 45.402   +07 20 02.79  .69637 1.6394 148.8 21.3 20.0 104
2026 04 17 03  15 22 40.559   +07 19 00.58  .69610 1.6393 148.8 21.3 21.2 105
2026 04 17 04  15 22 35.710   +07 17 58.30  .69582 1.6393 148.9 21.3 22.5 105
2026 04 17 05  15 22 30.853   +07 16 55.92  .69554 1.6392 148.9 21.3 23.8 106
2026 04 17 06  15 22 25.990   +07 15 53.46  .69527 1.6392 149.0 21.3 25.2 106
2026 04 17 07  15 22 21.120   +07 14 50.91  .69499 1.6391 149.0 21.3 26.6 107
2026 04 17 08  15 22 16.243   +07 13 48.27  .69471 1.6390 149.1 21.3 28.1 108
2026 04 17 09  15 22 11.359   +07 12 45.55  .69444 1.6390 149.1 21.3 29.6 108
2026 04 17 10  15 22 06.468   +07 11 42.73  .69416 1.6389 149.2 21.3 31.2 109
2026 04 17 11  15 22 01.571   +07 10 39.84  .69389 1.6389 149.2 21.3 32.8 110
2026 04 17 12  15 21 56.667   +07 09 36.85  .69361 1.6388 149.3 21.3 34.5 111
2026 04 17 13  15 21 51.755   +07 08 33.78  .69334 1.6387 149.3 21.3 36.2 112
2026 04 17 14  15 21 46.837   +07 07 30.61  .69307 1.6387 149.4 21.3 38.1 113
2026 04 17 15  15 21 41.913   +07 06 27.37  .69279 1.6386 149.4 21.3 40.0 114
2026 04 17 16  15 21 36.981   +07 05 24.03  .69252 1.6386 149.5 21.3 42.0 115
2026 04 17 17  15 21 32.042   +07 04 20.61  .69225 1.6385 149.5 21.3 44.0 115
2026 04 17 18  15 21 27.097   +07 03 17.10  .69198 1.6384 149.6 21.3 46.2 116
2026 04 17 19  15 21 22.145   +07 02 13.50  .69170 1.6384 149.6 21.3 48.4 117
2026 04 17 20  15 21 17.186   +07 01 09.81  .69143 1.6383 149.7 21.3 50.7 118
2026 04 17 21  15 21 12.221   +07 00 06.04  .69116 1.6383 149.7 21.3 53.1 119
2026 04 17 22  15 21 07.248   +06 59 02.18  .69089 1.6382 149.8 21.3 55.6 119
2026 04 17 23  15 21 02.269   +06 57 58.23  .69062 1.6381 149.8 21.3 58.2 120
2026 04 18 00  15 20 57.283   +06 56 54.19  .69035 1.6381 149.9 21.3 60.8 121
2026 04 18 01  15 20 52.291   +06 55 50.07  .69008 1.6380 149.9 21.3 63.6 122
2026 04 18 02  15 20 47.291   +06 54 45.86  .68982 1.6380 150.0 21.3 66.4 122
2026 04 18 03  15 20 42.285   +06 53 41.56  .68955 1.6379 150.0 21.3 69.4 123
2026 04 18 04  15 20 37.272   +06 52 37.17  .68928 1.6378 150.1 21.3 72.4 123
2026 04 18 05  15 20 32.253   +06 51 32.69  .68901 1.6378 150.1 21.3 75.5 124
2026 04 18 06  15 20 27.226   +06 50 28.13  .68875 1.6377 150.2 21.3 78.7 124
2026 04 18 07  15 20 22.193   +06 49 23.48  .68848 1.6377 150.2 21.3 82.0 125
2026 04 18 08  15 20 17.154   +06 48 18.74  .68821 1.6376 150.3 21.3 85.4 125
2026 04 18 09  15 20 12.107   +06 47 13.91  .68795 1.6376 150.3 21.3 88.9 125
2026 04 18 10  15 20 07.054   +06 46 09.00  .68768 1.6375 150.4 21.3 92.4 126
2026 04 18 11  15 20 01.994   +06 45 03.99  .68742 1.6374 150.4 21.3 96.1 126
2026 04 18 12  15 19 56.928   +06 43 58.90  .68715 1.6374 150.5 21.2  100 127
2026 04 18 13  15 19 51.854   +06 42 53.72  .68689 1.6373 150.5 21.2  104 127
2026 04 18 14  15 19 46.775   +06 41 48.46  .68663 1.6373 150.6 21.2  108 127
2026 04 18 15  15 19 41.688   +06 40 43.10  .68636 1.6372 150.6 21.2  112 127
2026 04 18 16  15 19 36.595   +06 39 37.66  .68610 1.6371 150.7 21.2  116 128
2026 04 18 17  15 19 31.495   +06 38 32.13  .68584 1.6371 150.7 21.2  120 128
2026 04 18 18  15 19 26.389   +06 37 26.51  .68558 1.6370 150.8 21.2  124 128
2026 04 18 19  15 19 21.275   +06 36 20.80  .68532 1.6370 150.8 21.2  129 128
2026 04 18 20  15 19 16.156   +06 35 15.00  .68505 1.6369 150.9 21.2  133 129
2026 04 18 21  15 19 11.029   +06 34 09.12  .68479 1.6369 150.9 21.2  138 129
2026 04 18 22  15 19 05.896   +06 33 03.15  .68453 1.6368 151.0 21.2  143 129
2026 04 18 23  15 19 00.757   +06 31 57.09  .68427 1.6367 151.0 21.2  147 129